Location: Skalnate Pleso
(49.1889°N, 20.2450°E)
Time: 11:16:25
(UTC+01:00)

Cosmos 2237 Rocket - Pass Details

Date: 19 November 2019
Orbit: 834 x 851 km, 71.0° (Epoch: 05 December)

Event Time Altitude Azimuth Distance (km) Brightness Sun altitude
Exits shadow 05:22:03 - 338° (NNW) 3,090 4.8 -14.9°
Reaches altitude 10° 05:23:53 10° 346° (NNW) 2,485 4.4 -14.6°
Maximum altitude 05:28:48 29° 46° (NE) 1,515 3.9 -13.8°
Drops below altitude 10° 05:33:41 10° 105° (ESE) 2,465 6.1 -13.1°
Sets 05:36:27 0° 117° (ESE) 3,394 7.2 -12.6°
